Location: Ar Ranvel
(48.3000°N, 4.8833°W)
Time: 03:44:12
(UTC+00:00)

Cosmos 2322 Rocket - Pass Details

Date: 01 November 2021
Orbit: 832 x 851 km, 71.0° (Epoch: 01 December)

Event Time Altitude Azimuth Distance (km) Brightness Sun altitude
Rises 17:46:13 0° 219° (SW) 3,366 6.2 -8.1°
Reaches altitude 10° 17:48:41 10° 223° (SW) 2,437 5.5 -8.5°
Maximum altitude 17:54:12 58° 302° (WNW) 973 2.8 -9.4°
Drops below altitude 10° 17:59:45 10° 22° (NNE) 2,461 4.3 -10.3°
Sets 18:02:16 0° 26° (NNE) 3,402 5.0 -10.8°
